Location: Goettingen
(51.5300°N, 9.9433°E)
Time: 10:45:36
(UTC+01:00)

ISS - Pass Details

Date: 24 March 2023
Orbit: 414 x 423 km, 51.6° (Epoch: 20 March)

Event Time Altitude Azimuth Distance (km) Brightness Sun altitude
Rises 20:16:14 0° 274° (W) 2,359 1.5 -15.4°
Reaches altitude 10° 20:18:20 10° 275° (W) 1,494 0.2 -15.7°
Maximum altitude 20:21:42 88° 6° (N) 421 -3.8 -16.2°
Enters shadow 20:22:44 42° 93° (E) 610 -3.4 -16.3°
